RH
32 29 20 28 36 33 41 43 43 53 55 60 60 53 48 59 70 80 91 85 89 87 79 85 83 80 83 89 93 93 95 97 97 95 94 93 99 100 94 92 91 91 92 93 92 86 83 79 69 72 80 79 80 80 77 73 70 65 60 55 48 45 43 42 47 61 78 88 89 86 83 82 82 78 74 71 70 74 77 78 79 80 82 86 88 89 92 88 83 85 88 89 89 90 89 88 89
34 34 28 33 32 29 45 53 56 62 59 59 58 59 61 75 89 90 92 89 92 84 77 82 83 85 84 86 89 90 94 96 95 93 97 99 99 98 94 91 89 91 90 87 83 78 73 68 67 74 79 78 78 71 66 67 68 66 61 54 48 46 46 42 36 36 49 67 82 87 86 85 84 81 78 74 68 69 73 77 79 80 81 84 87 89 91 86 83 86 88 89 90 90 89 88 90
31 37 34 34 29 32 50 51 57 65 58 60 61 63 74 88 93 88 88 87 88 82 78 81 85 90 86 89 90 90 93 94 94 95 100 99 98 97 90 85 83 85 82 81 79 72 66 69 75 78 77 73 66 58 63 68 66 61 54 53 53 52 49 47 41 35 34 40 58 75 83 86 85 82 79 78 74 70 70 74 79 81 81 83 86 85 86 84 82 85 85 86 90 91 90 89 89
24 31 35 36 31 39 60 56 59 65 57 63 64 66 79 88 90 85 85 84 83 84 82 85 90 88 89 96 92 92 95 95 96 95 100 98 98 96 87 85 81 80 79 79 75 65 71 79 78 75 72 66 59 62 73 74 67 60 57 62 64 62 58 52 48 43 37 30 37 54 73 84 84 83 80 79 78 74 69 71 78 83 82 84 86 84 84 83 82 84 83 86 90 91 91 88 86
20 27 34 39 34 38 55 56 63 69 54 59 65 70 81 83 90 88 84 84 78 84 86 86 90 86 87 94 92 96 98 96 96 93 99 98 94 92 88 87 82 81 79 76 72 72 81 78 72 72 68 67 71 76 81 74 68 66 67 73 74 74 72 71 71 68 56 37 28 32 50 74 83 83 81 81 79 77 74 70 73 82 85 85 87 86 85 84 82 82 82 88 91 91 89 84 83
23 29 35 37 34 34 40 44 60 78 61 60 75 79 83 83 90 90 85 80 73 83 86 86 90 87 90 93 92 97 99 97 94 91 95 94 91 90 87 85 83 82 77 71 71 76 77 71 72 70 64 72 81 85 84 77 73 73 75 76 77 81 81 81 83 87 80 60 44 31 30 51 74 82 83 85 83 80 79 72 68 79 87 86 86 84 87 87 83 82 83 86 90 91 86 82 84
24 25 32 31 34 39 45 50 57 80 72 68 88 85 83 87 90 88 85 77 75 84 85 88 86 88 94 91 92 94 95 95 92 91 88 85 84 83 82 80 78 76 68 66 70 73 72 71 73 65 64 78 83 86 88 85 83 80 80 78 78 83 83 82 81 83 84 79 70 59 46 45 58 72 86 88 83 81 80 75 69 75 84 85 85 84 89 89 84 83 83 83 86 88 83 80 86
24 24 36 39 43 51 61 68 66 79 77 72 88 89 88 91 90 88 86 82 84 87 87 90 82 89 97 87 96 93 89 95 91 88 81 77 77 75 75 69 64 62 59 64 71 72 71 69 66 62 67 74 77 80 81 81 81 80 81 81 81 80 77 76 77 77 80 82 78 75 70 65 61 64 84 89 82 83 81 80 75 75 80 81 84 85 89 86 83 84 83 82 82 84 82 80 87
23 24 37 43 48 63 73 75 73 75 74 75 82 88 90 88 89 87 91 93 92 92 92 92 84 90 95 90 97 89 89 98 88 81 77 74 72 67 64 57 53 54 59 67 69 68 67 62 58 61 66 68 69 71 71 71 71 74 77 79 79 75 73 71 75 79 80 82 79 77 75 78 76 68 77 83 80 79 79 83 79 77 78 81 85 82 86 84 82 86 86 84 82 85 83 83 87
28 31 36 49 61 73 79 78 78 75 70 77 81 84 87 86 88 89 94 97 94 96 95 89 86 91 92 94 97 88 91 94 84 79 76 74 67 61 60 57 55 57 64 66 64 67 65 56 51 57 66 67 66 66 65 65 65 68 72 75 75 74 73 65 69 80 81 81 79 75 73 76 80 75 75 77 76 73 75 78 74 75 78 83 88 82 83 83 82 86 87 85 83 84 82 84 86
38 40 44 67 77 75 79 80 80 79 75 81 83 84 89 86 87 91 94 94 93 96 94 88 88 91 91 94 93 86 87 89 82 77 76 72 66 65 65 59 59 62 62 62 66 69 65 58 54 60 67 66 65 65 63 62 63 67 71 71 70 74 71 56 60 78 83 80 71 62 64 68 72 75 77 77 76 73 73 72 69 75 80 86 88 83 83 82 83 86 85 84 81 79 80 83 84
38 45 60 72 72 68 76 79 76 80 84 85 76 77 90 87 84 90 93 93 92 94 93 89 87 87 91 93 89 81 81 85 81 77 77 71 70 71 65 59 61 62 60 64 72 72 70 68 65 65 67 67 66 65 62 61 64 67 68 64 63 72 71 55 54 73 81 75 66 61 61 62 66 72 75 78 79 77 77 76 76 81 87 90 88 85 84 83 85 87 85 85 84 81 80 83 83
45 53 63 57 61 68 75 79 79 82 85 86 72 74 89 86 84 87 91 91 92 95 89 86 85 85 94 94 86 85 80 79 78 77 78 72 73 73 65 63 61 60 64 71 75 75 74 70 67 66 67 67 67 66 61 61 65 65 63 59 61 69 68 58 53 65 74 69 66 66 64 64 69 75 74 76 80 79 79 79 80 85 87 87 87 87 86 84 85 86 84 86 89 86 83 85 84
47 64 68 53 63 75 79 78 80 81 78 83 75 78 87 82 84 84 87 90 89 91 84 81 81 84 95 92 85 90 82 74 77 77 78 77 80 78 70 70 68 63 67 72 75 75 70 66 66 66 67 69 68 65 62 62 64 63 61 60 62 64 59 56 56 61 66 63 66 66 64 65 69 76 76 78 82 82 83 79 81 88 85 82 85 88 87 83 84 84 83 87 88 86 85 86 85
44 74 83 64 66 72 73 69 78 81 69 73 75 80 84 80 84 84 83 85 85 82 79 78 74 80 89 88 86 86 76 71 77 79 80 82 85 85 77 75 77 73 69 71 74 70 65 66 67 66 66 68 66 64 63 62 62 62 61 60 61 59 53 54 57 60 63 60 61 64 65 66 67 72 74 78 81 84 86 81 80 86 83 82 86 88 86 81 81 82 82 89 88 85 87 87 86
61 75 81 68 67 66 64 66 78 78 64 69 75 80 85 83 85 87 82 78 84 83 84 86 79 82 83 81 82 73 67 71 77 79 82 84 86 86 80 77 79 78 77 72 71 67 63 66 66 64 65 66 63 62 63 62 62 62 60 60 61 58 53 53 55 58 62 60 58 61 64 67 68 69 70 72 74 77 79 79 79 81 82 84 85 85 83 79 79 79 80 86 86 82 82 82 83
66 66 71 65 68 66 63 68 75 73 71 76 74 80 89 88 84 86 82 77 88 91 91 91 87 89 82 76 72 63 65 71 75 79 82 85 84 83 79 78 79 79 78 73 69 66 63 65 64 63 63 63 61 59 62 62 62 61 59 59 59 58 53 50 54 57 59 59 58 58 60 63 64 64 65 67 70 71 71 76 79 78 80 81 79 77 77 78 78 77 76 78 80 79 79 79 79
65 71 65 64 76 73 66 67 70 71 75 78 76 81 88 88 85 84 86 87 90 93 93 91 92 93 83 75 68 65 70 73 77 81 83 84 81 81 79 78 80 76 71 71 68 64 63 64 63 63 64 62 58 59 62 62 62 60 59 59 58 59 54 49 53 58 58 58 59 59 58 58 58 58 62 66 67 67 66 69 74 74 76 75 73 72 74 77 77 75 74 74 78 79 80 80 78
76 78 58 71 84 71 69 69 65 68 73 79 81 83 86 86 82 80 90 97 93 95 97 92 94 94 87 82 75 73 76 76 78 80 80 81 77 76 77 76 75 68 64 67 65 61 62 63 62 64 64 60 57 60 62 61 61 58 58 59 59 59 54 50 52 56 58 59 60 60 59 59 59 61 64 65 65 65 67 68 72 72 72 72 73 73 73 74 73 73 73 74 75 77 79 80 80
73 71 60 80 83 66 73 76 67 69 74 80 83 84 85 78 75 82 93 97 93 96 96 92 94 94 92 90 84 80 78 77 76 78 78 76 73 71 71 70 69 63 59 63 62 60 62 61 63 65 64 61 58 60 61 61 60 58 59 58 58 58 53 49 51 55 58 60 62 60 61 64 64 65 65 64 63 62 65 68 71 71 70 70 73 75 74 72 71 70 70 71 73 76 78 79 81
60 66 67 75 73 62 69 78 75 74 74 76 83 83 77 71 77 90 93 95 96 95 91 89 90 90 92 93 89 83 80 78 75 76 76 73 70 67 66 65 65 60 56 59 60 59 61 61 63 64 63 61 59 60 62 62 60 58 58 57 57 57 51 50 52 55 58 60 61 60 61 63 64 64 62 62 62 61 63 67 69 69 69 69 71 72 71 70 68 67 68 68 71 74 76 78 81
58 66 71 72 69 64 69 81 79 75 76 78 82 77 71 73 84 92 89 92 95 92 89 85 84 86 89 90 90 86 84 83 79 77 75 72 69 65 63 62 62 57 54 56 57 59 60 62 64 64 62 60 60 62 64 62 60 59 58 58 59 57 51 51 54 55 59 60 60 61 59 59 60 60 59 59 59 61 62 66 68 68 69 69 68 68 67 66 65 64 65 67 70 72 75 78 80
59 63 66 71 69 65 73 82 78 73 75 76 74 69 74 82 86 89 87 87 87 88 88 84 85 87 84 86 88 89 90 88 83 77 72 70 68 65 62 60 60 56 54 54 56 60 60 63 64 64 63 60 60 62 64 63 60 62 62 61 60 58 52 51 55 55 58 61 59 60 59 57 57 57 57 57 57 58 60 64 66 65 67 67 65 65 64 62 62 62 62 65 69 72 75 77 79
57 56 58 64 67 69 75 80 77 72 69 69 68 67 79 84 79 84 91 91 89 89 87 86 90 87 82 86 88 89 90 88 80 72 67 67 65 63 60 58 59 57 54 53 57 60 61 63 64 64 64 61 62 63 64 64 62 63 64 65 62 57 53 52 55 55 55 57 57 58 59 58 56 57 57 56 56 56 57 60 61 61 63 64 63 63 62 60 60 60 60 63 66 69 74 78 79
57 56 58 60 65 73 76 78 74 67 66 66 67 72 78 77 76 83 93 95 92 88 86 88 91 88 87 88 89 90 90 87 78 70 67 65 64 64 60 58 59 57 55 54 58 60 61 64 65 64 63 63 66 65 65 64 64 65 65 66 63 56 52 52 54 55 52 50 51 53 56 57 56 58 58 57 56 55 56 57 59 60 62 63 60 60 61 59 58 59 60 61 64 67 72 78 79
56 56 56 59 65 70 71 72 69 64 65 66 71 78 77 71 74 81 87 92 90 85 86 90 89 89 89 87 89 91 90 88 81 72 67 64 66 65 60 58 57 57 54 56 59 60 63 65 65 65 63 64 67 66 67 66 64 66 66 66 63 56 52 52 54 55 53 50 50 50 51 52 53 55 58 59 57 54 55 57 58 60 61 61 58 57 59 57 57 60 61 60 61 65 70 75 79
55 55 56 61 64 65 66 67 66 63 61 67 75 81 77 69 72 79 84 90 86 83 88 90 89 89 88 86 88 90 89 86 78 71 69 68 67 63 59 57 56 56 55 57 59 60 64 65 65 65 64 65 67 68 69 68 66 66 67 67 64 57 53 53 54 55 55 54 52 51 51 51 52 53 56 60 59 54 54 55 57 57 57 57 55 55 56 56 57 61 60 56 55 59 66 72 77
52 52 54 59 62 61 63 64 61 59 58 66 75 74 71 70 74 80 85 90 86 84 91 90 90 90 88 88 86 89 89 80 73 70 70 69 63 58 55 53 54 56 55 56 58 61 64 64 65 65 64 66 68 69 68 66 66 66 67 67 66 60 55 53 54 55 56 56 55 54 53 52 53 53 55 60 59 54 53 53 54 54 54 54 53 53 54 55 56 59 59 54 52 55 64 72 75
50 54 56 55 61 59 55 60 57 53 57 63 66 65 70 74 72 77 86 90 87 86 91 91 92 90 89 90 86 88 86 77 75 71 65 60 54 52 50 49 51 53 54 56 58 62 64 64 65 65 65 66 68 68 67 65 65 66 67 67 68 64 59 56 54 56 56 57 58 57 56 54 55 55 56 59 58 56 55 54 54 53 53 52 52 53 53 54 55 57 57 54 50 53 66 75 76
48 57 66 65 65 59 48 55 55 50 55 57 57 63 76 78 65 72 88 90 89 90 91 91 92 91 89 90 88 87 83 76 76 70 62 57 52 50 49 48 50 50 53 56 59 62 64 64 65 66 66 65 68 69 67 67 67 67 68 68 68 67 64 61 58 57 57 59 61 61 59 55 55 56 56 58 58 57 57 56 55 53 52 52 51 52 53 54 55 56 57 56 52 55 70 79 79
58 54 69 80 69 60 52 53 55 51 54 55 58 68 79 79 64 70 86 87 89 91 91 91 91 91 90 89 89 87 82 75 71 66 63 60 55 52 50 49 50 51 53 56 59 62 63 64 66 66 66 66 67 68 68 70 70 69 68 67 69 69 67 65 62 59 59 62 64 63 61 57 56 55 55 57 57 57 57 56 56 55 54 52 51 52 53 55 58 57 57 59 58 63 75 81 82
73 57 63 81 64 59 58 52 57 54 53 52 55 69 75 73 65 68 81 85 88 90 90 90 89 89 88 88 89 88 82 73 66 64 63 61 59 55 53 52 51 52 54 57 60 62 63 63 66 68 67 67 67 66 68 70 71 72 69 68 69 69 68 67 64 61 62 65 64 62 60 57 55 54 54 56 56 56 56 56 57 56 54 54 53 53 56 59 59 57 57 59 63 69 76 81 83
77 63 62 72 59 60 57 49 56 53 54 53 51 66 70 63 62 65 76 82 85 89 88 87 87 86 86 86 86 85 84 77 69 64 60 60 59 56 55 55 54 55 55 58 60 61 63 63 64 68 68 69 69 67 68 70 71 72 71 69 69 69 69 69 65 63 66 66 63 60 56 54 54 53 53 54 55 56 56 56 56 55 54 53 54 55 59 61 59 56 55 57 61 66 71 78 83
69 65 64 66 60 60 56 54 56 49 55 59 53 64 67 62 63 63 70 78 82 86 85 83 83 82 82 83 83 83 83 81 76 66 59 58 59 57 58 57 57 58 57 59 59 60 63 63 64 68 68 69 70 68 69 71 70 69 69 68 68 68 69 70 68 67 69 66 63 59 54 53 52 51 51 52 54 55 54 54 54 54 54 53 52 54 59 62 59 56 55 55 57 60 64 73 83
67 68 65 61 54 53 55 56 55 49 53 58 57 63 64 61 61 61 67 73 78 80 78 78 78 79 80 79 79 79 79 80 74 66 59 57 58 58 59 59 58 58 58 59 59 60 64 65 65 67 69 70 71 70 71 72 71 69 68 67 66 65 68 69 69 70 70 66 64 61 55 54 51 49 50 51 53 54 52 53 54 54 54 54 52 51 55 60 59 55 54 54 56 60 63 70 82
62 67 67 61 50 49 53 51 50 51 52 56 61 64 64 58 55 59 64 70 75 76 74 73 74 76 78 78 77 74 74 74 68 63 59 57 57 58 59 59 58 57 58 59 59 62 66 67 67 68 69 70 72 71 72 72 70 68 68 68 66 64 66 66 67 72 71 67 67 64 59 55 52 50 49 51 52 53 53 53 54 55 55 55 53 52 56 59 58 54 52 52 54 58 63 70 81
52 57 62 55 45 45 46 41 45 49 51 55 56 58 60 56 54 57 60 68 74 74 74 72 70 70 72 73 73 71 71 67 61 59 58 57 57 58 59 59 58 58 59 59 60 63 67 69 68 68 69 70 71 72 72 72 70 69 68 69 69 67 66 65 68 72 71 70 70 67 63 58 55 52 51 52 52 53 54 53 53 54 56 56 56 57 58 58 57 56 53 52 53 55 60 66 75
52 51 51 48 46 46 40 39 48 47 47 54 52 54 56 49 51 56 59 66 69 70 72 70 67 65 66 67 66 67 66 63 63 63 59 58 59 59 60 60 58 58 59 59 61 65 68 70 70 70 70 70 70 71 72 71 70 71 71 71 72 71 69 67 69 71 70 71 72 71 67 63 59 54 52 54 54 54 54 53 52 54 55 57 58 59 57 57 56 56 55 54 54 55 58 61 66
53 49 44 45 48 47 38 39 49 44 42 51 51 50 51 49 54 58 59 62 62 62 64 64 62 61 61 62 62 62 63 66 71 73 68 63 62 62 61 60 58 57 58 60 63 67 69 71 71 71 70 70 71 71 70 70 70 71 71 72 74 72 69 68 69 70 70 70 72 73 70 67 64 58 54 54 54 55 54 53 53 54 55 56 56 56 54 54 54 54 54 54 54 54 56 58 60
50 49 45 46 47 47 44 40 44 42 39 45 49 53 58 55 51 52 55 56 55 54 55 57 56 56 57 57 59 62 63 68 75 79 79 74 70 69 65 60 58 58 59 61 64 68 70 71 71 72 71 71 73 71 69 70 71 71 72 73 74 70 68 67 68 69 69 70 71 72 72 71 68 63 57 55 55 55 54 53 53 53 54 55 55 54 53 52 52 52 52 52 53 54 55 57 57
48 46 47 49 46 48 49 44 42 41 38 42 50 64 76 69 49 46 53 52 50 48 48 53 52 53 56 56 61 66 66 69 76 82 84 83 78 71 66 62 60 60 60 61 64 66 69 70 69 71 71 71 73 72 71 72 71 71 73 73 72 70 68 66 66 68 68 70 71 71 74 74 71 67 61 57 56 57 55 53 54 53 53 54 55 55 55 55 54 53 53 52 53 55 55 56 57
46 39 40 40 37 42 45 45 44 43 45 46 47 58 78 79 58 49 55 50 48 48 45 49 52 56 60 59 62 68 70 73 77 81 82 83 79 72 70 68 64 62 59 61 63 65 67 69 68 69 70 71 72 72 72 72 70 71 72 72 73 73 71 67 67 69 68 69 71 71 74 75 72 70 66 59 56 57 57 55 54 54 53 53 53 55 55 56 56 56 56 54 54 56 55 56 57
43 36 34 32 35 41 42 42 47 53 55 49 49 57 70 75 59 52 58 51 47 50 48 49 52 60 65 60 63 69 72 76 77 78 82 82 77 75 73 69 64 61 59 60 62 64 67 68 68 68 69 70 71 71 70 70 70 71 72 73 75 75 73 70 68 68 68 68 70 71 73 74 73 73 71 65 60 58 58 57 55 54 53 53 52 53 54 55 56 57 57 57 56 56 55 56 57
42 37 31 31 34 39 40 41 50 61 57 52 62 61 55 66 66 60 59 49 46 50 49 51 53 62 68 63 64 69 71 76 79 79 83 82 77 74 70 65 61 59 59 61 62 63 66 67 67 67 68 70 70 71 70 70 71 71 73 74 74 74 73 72 70 67 68 68 68 70 70 72 73 73 74 71 66 61 58 58 57 55 54 53 52 53 53 54 55 55 56 57 57 58 57 56 57
40 33 29 34 35 38 40 40 55 65 51 50 66 55 46 72 79 62 53 45 45 50 47 49 53 61 69 66 64 67 69 74 77 78 81 81 76 70 65 61 59 59 60 61 61 62 65 67 67 66 68 70 70 72 71 70 72 72 74 75 74 75 75 75 73 69 69 69 68 68 68 70 71 72 73 72 69 63 58 58 59 58 56 54 53 52 52 53 54 54 55 56 56 57 58 58 58
31 29 33 38 41 47 47 46 56 61 53 52 59 51 49 75 79 56 47 47 47 48 47 49 53 59 67 67 64 65 68 71 74 77 78 76 72 67 65 63 61 62 62 62 61 62 65 67 68 67 68 70 69 70 71 70 73 73 75 76 75 76 77 77 75 72 72 72 69 67 67 68 68 70 71 71 70 66 61 61 63 62 58 55 55 53 52 52 52 54 54 55 56 56 57 57 58
25 32 34 34 45 57 63 69 60 50 60 64 59 54 48 62 76 62 48 51 50 43 44 51 53 58 64 66 65 63 65 69 73 75 75 73 71 69 69 69 66 65 65 64 62 62 65 66 67 68 68 68 68 69 70 70 71 73 73 75 75 76 78 79 77 75 75 73 70 67 67 67 67 68 70 70 70 69 67 66 67 67 62 58 57 56 54 52 52 52 53 54 55 55 56 56 57
32 38 36 34 48 56 61 71 57 47 64 65 59 59 46 53 74 66 50 53 54 44 40 48 51 53 59 62 63 63 64 68 71 74 76 77 77 74 73 71 69 69 67 65 63 63 66 67 66 68 68 68 68 68 69 69 70 72 74 75 76 78 79 80 78 75 72 71 69 68 68 68 68 68 69 70 70 70 70 69 69 70 66 63 62 60 58 54 52 52 52 53 54 55 56 56 57
32 36 42 44 52 54 55 63 59 59 62 54 57 56 44 51 59 53 47 44 47 47 38 41 46 48 54 59 61 64 65 67 71 74 78 83 85 80 76 73 71 70 65 62 63 64 65 66 67 67 67 67 68 68 68 69 70 72 75 78 79 81 79 76 73 70 68 69 68 67 67 67 66 66 67 68 69 70 70 70 70 69 69 68 67 65 63 59 56 55 53 53 53 53 54 55 56
29 34 42 46 56 56 54 61 62 61 55 49 56 51 46 53 44 39 44 37 38 46 40 40 44 43 48 54 58 64 67 68 71 75 79 85 87 82 77 74 71 67 62 60 62 65 65 66 67 66 66 67 68 68 68 70 71 74 77 78 78 77 73 70 68 66 66 67 66 66 66 66 65 64 64 64 66 67 68 69 69 69 68 69 69 68 66 63 61 60 58 56 54 53 53 54 54
29 35 34 37 58 60 51 55 59 59 59 54 47 42 50 52 39 35 39 36 39 41 40 43 44 46 52 56 59 65 67 68 71 74 80 84 84 81 77 74 71 65 60 60 62 64 65 65 65 65 65 66 67 68 69 70 72 75 76 73 71 71 68 66 66 65 65 64 64 65 65 65 66 65 64 63 63 64 65 67 68 69 69 70 70 70 68 67 65 64 64 62 60 57 54 54 54
29 32 30 30 46 57 53 55 66 67 62 59 47 46 61 54 38 41 39 37 40 38 41 44 46 55 61 61 63 65 66 69 71 74 80 85 84 81 78 75 72 66 61 60 61 62 63 62 64 64 63 64 66 67 68 69 72 75 73 68 67 68 67 66 64 64 64 64 64 64 64 64 65 64 64 64 64 64 64 65 66 67 69 70 71 71 70 70 69 68 67 66 65 62 60 57 56
31 27 32 35 35 48 51 46 64 66 48 54 54 49 61 49 32 39 39 36 37 37 41 43 50 63 63 62 65 65 66 69 71 73 78 85 86 83 80 75 72 69 64 61 59 59 60 60 61 62 61 62 64 65 66 67 70 71 68 64 65 65 64 63 62 61 62 63 63 63 62 62 61 62 62 63 63 63 62 63 63 63 65 67 69 69 70 71 71 71 70 69 68 66 65 63 60
34 29 32 33 25 38 51 44 55 56 42 57 59 46 55 52 41 44 37 33 34 34 41 45 55 66 62 63 68 65 67 69 70 74 77 83 87 84 81 75 70 68 62 59 58 58 58 59 60 59 59 60 61 62 64 64 64 63 62 62 62 61 61 60 60 60 60 60 60 59 59 58 58 59 60 60 61 61 61 62 61 62 62 63 65 66 67 69 70 71 71 70 69 69 69 68 65
31 33 27 29 28 31 38 40 49 46 40 56 58 49 55 54 55 50 31 32 37 34 43 47 52 63 60 63 70 69 72 74 73 77 80 84 85 83 80 74 69 67 61 58 57 57 58 59 60 58 58 58 59 61 62 61 61 60 60 60 59 59 59 58 58 58 58 58 57 57 57 57 57 57 58 59 59 60 60 61 61 62 62 63 64 65 66 68 69 70 70 70 70 71 71 70 68
25 30 25 33 48 46 36 38 45 42 44 55 51 49 55 52 56 49 29 34 40 35 44 46 46 56 59 63 70 72 75 77 76 77 81 85 83 79 75 67 63 63 61 58 56 56 57 58 59 59 58 58 58 59 59 59 60 59 58 58 57 58 57 56 56 56 56 56 55 56 56 56 56 57 58 58 58 59 60 61 61 61 62 62 63 64 66 70 71 71 72 71 71 73 75 73 71
26 29 27 32 40 38 33 36 41 42 51 61 54 50 58 56 51 43 31 35 38 33 38 41 43 52 60 65 69 72 75 76 76 78 81 85 82 76 72 64 57 57 59 59 57 56 56 57 59 58 58 57 56 56 55 55 56 57 57 56 54 54 54 54 55 54 55 55 55 55 55 56 56 56 57 57 58 60 60 61 62 61 62 62 61 63 67 71 73 73 73 74 74 76 77 76 75
41 37 33 41 41 37 36 36 43 49 51 61 63 54 59 63 51 39 33 34 34 32 35 39 44 52 61 69 70 71 75 76 77 79 82 86 83 76 73 68 63 62 62 59 57 57 57 56 56 56 57 56 53 52 53 52 53 54 54 53 51 52 53 53 54 54 54 54 54 55 55 55 56 56 57 58 59 61 61 61 62 61 62 62 63 64 66 69 72 72 73 74 76 78 78 78 78
Wind_Speed
6 7 8 8 5 4 1 3 2 2 2 2 1 0 1 2 1 2 5 3 1 1 3 4 3 2 3 5 7 6 4 1 2 2 2 1 3 5 7 7 6 7 7 7 6 6 7 6 7 7 8 8 8 9 9 9 8 8 8 8 8 8 7 6 5 5 5 6 7 7 6 5 5 4 4 4 4 4 5 6 6 6 6 6 6 5 5 5 5 5 4 3 2 2 2 2 2
5 6 7 7 3 2 1 3 3 2 4 2 2 1 2 3 3 1 3 2 0 2 3 3 3 5 5 6 7 5 4 4 1 2 1 4 7 9 9 9 8 7 7 7 5 5 6 7 7 7 7 8 8 8 8 8 8 8 9 9 10 10 9 8 6 5 4 4 5 6 7 7 5 4 4 4 3 3 4 5 6 6 6 6 6 6 5 5 5 4 4 3 2 2 2 2 2
3 4 4 5 1 2 1 3 3 1 4 1 3 2 2 2 1 2 3 2 2 4 3 3 2 3 3 4 4 3 2 3 3 3 2 4 5 7 9 8 7 7 7 6 4 5 7 7 7 7 7 7 8 8 8 8 9 10 11 12 13 13 12 11 9 7 5 4 3 4 5 6 6 5 4 3 3 2 3 5 6 6 6 6 6 6 6 6 5 4 3 3 2 2 2 2 2
2 2 1 1 1 3 3 3 2 4 3 2 2 3 1 1 3 2 2 3 4 3 2 2 2 3 3 6 4 2 2 1 3 3 1 3 3 5 7 7 7 6 6 5 4 6 8 6 6 7 7 8 9 9 9 9 10 11 13 15 16 16 15 14 13 11 9 6 4 2 2 4 5 5 4 3 3 2 2 4 5 6 6 6 6 6 6 6 5 4 4 3 3 2 3 3 3
2 2 1 0 2 1 3 3 2 4 3 3 1 3 2 2 3 2 3 3 4 3 3 3 2 3 3 5 2 1 2 1 3 4 3 2 4 7 7 8 8 7 6 5 6 7 7 5 6 7 7 9 11 11 11 11 12 14 15 16 16 17 16 15 14 14 13 11 6 3 2 1 3 4 4 4 3 2 2 4 4 5 6 6 7 6 5 5 4 4 4 4 3 3 3 3 3
3 3 0 2 2 1 3 3 2 2 3 4 2 4 3 3 2 2 4 3 4 4 4 4 2 1 2 3 2 2 2 2 2 3 3 4 7 8 8 8 7 6 5 6 7 7 6 5 6 7 8 10 11 11 12 13 15 15 16 15 15 15 16 14 13 12 12 14 12 7 4 1 1 2 3 4 4 3 2 3 3 4 6 6 7 6 5 4 4 3 4 4 3 4 4 3 3
2 1 1 3 2 2 4 3 3 2 2 4 3 4 4 3 1 1 3 2 4 6 4 4 3 2 2 1 1 3 6 3 1 3 4 8 10 8 7 6 6 6 6 7 7 7 5 5 6 7 9 11 11 11 12 13 14 14 14 14 14 14 14 13 12 11 10 12 13 10 7 4 2 1 2 3 4 3 2 3 3 3 4 5 6 6 4 4 4 3 4 4 4 4 4 4 3
2 0 1 4 2 3 4 2 2 3 2 3 3 3 4 3 2 1 2 1 1 2 2 2 3 4 2 2 1 4 9 7 4 5 7 9 9 7 7 6 6 6 7 7 7 6 5 5 7 8 10 11 11 11 11 12 12 13 13 12 12 12 12 12 11 10 9 9 10 9 8 7 5 2 2 3 3 3 3 3 4 4 4 5 5 5 4 4 4 4 5 5 4 3 4 4 4
2 1 1 4 3 3 3 2 0 2 3 2 2 3 3 2 1 2 2 2 2 1 1 2 1 3 2 3 2 2 7 7 6 7 8 9 7 7 7 6 7 7 8 7 6 7 6 7 8 10 11 11 11 11 12 12 12 12 12 12 11 11 12 12 11 9 9 9 9 8 6 6 7 4 1 2 3 4 4 3 4 4 3 3 4 4 4 4 4 4 5 4 4 3 4 5 4
2 2 2 3 3 3 3 0 1 2 3 2 2 3 3 2 1 2 2 2 2 1 2 2 2 4 5 3 2 1 5 4 7 9 8 8 7 7 6 6 7 7 7 7 7 8 8 8 9 11 11 11 11 11 11 11 11 11 11 12 12 12 12 11 11 10 9 9 8 6 5 5 5 4 3 3 4 4 4 4 5 4 2 2 3 3 4 4 4 4 4 4 4 4 4 5 4
2 3 3 3 3 2 1 2 2 3 4 3 2 3 1 2 1 1 1 2 1 1 3 2 2 5 7 3 1 1 4 1 8 10 9 8 7 7 6 6 6 6 6 7 9 9 10 10 10 10 10 11 10 10 11 11 12 12 11 11 11 11 11 12 13 10 9 10 8 5 5 5 4 3 3 3 3 4 5 6 6 4 3 3 2 2 3 3 4 4 4 4 5 6 6 6 5
2 3 3 4 2 2 2 2 2 3 4 3 1 2 2 1 1 1 2 3 1 2 2 2 2 4 6 3 1 2 3 4 9 9 9 8 7 6 5 6 6 6 7 8 8 9 10 10 9 9 9 10 10 10 11 12 12 11 11 11 11 10 10 13 14 11 10 11 8 5 5 5 4 3 3 2 3 4 6 7 7 5 3 3 2 2 3 3 4 5 4 4 6 7 7 6 6
2 1 4 3 2 3 3 2 2 2 4 2 2 2 2 2 2 4 4 3 2 2 3 3 2 3 4 1 1 3 1 6 9 9 9 8 7 6 5 6 6 7 7 7 7 8 9 10 9 9 8 9 10 10 11 12 11 10 11 11 10 10 11 14 14 11 10 11 8 6 4 4 4 4 3 3 4 5 6 7 7 5 4 4 3 3 4 4 4 5 4 5 6 6 7 7 6
2 2 4 2 1 2 4 2 1 1 3 4 2 2 2 2 2 3 4 3 1 1 1 2 2 3 3 1 0 2 3 8 10 10 9 8 6 5 5 6 6 6 6 5 5 7 9 9 8 8 8 8 9 10 11 10 9 9 10 10 9 10 12 14 14 11 9 11 9 6 4 4 4 3 3 4 4 5 6 7 6 6 5 5 5 5 4 4 4 5 4 5 6 6 7 7 6
3 2 4 3 2 1 2 2 2 3 3 4 3 3 2 1 2 4 3 2 1 2 2 2 1 1 2 4 3 4 7 11 11 10 10 8 7 5 6 7 6 6 5 4 4 6 8 7 7 7 8 8 9 10 11 9 8 9 9 9 9 12 14 15 14 11 9 10 10 8 5 3 3 3 3 5 5 5 5 6 5 6 6 7 7 6 5 5 5 5 5 6 6 6 6 6 5
2 3 4 3 1 1 2 2 2 3 3 3 3 3 4 2 2 3 2 2 2 2 3 1 2 2 4 4 3 7 12 13 12 11 10 9 8 8 9 9 7 6 5 3 3 5 6 6 6 7 8 8 10 10 10 8 8 9 9 10 10 12 15 16 14 12 10 11 11 9 7 5 4 3 4 6 6 6 6 6 6 6 6 7 8 7 7 7 6 6 6 6 6 6 6 6 5
2 4 4 2 2 3 3 3 3 3 3 3 2 2 4 2 1 2 1 5 4 2 5 4 4 2 4 2 4 12 13 12 12 11 9 9 9 9 10 10 8 7 5 3 3 3 4 5 6 6 8 9 10 11 9 8 8 9 10 11 11 12 15 16 14 13 12 12 11 10 9 7 6 5 6 6 6 6 7 7 7 8 8 9 9 8 8 8 8 7 7 7 7 8 8 7 6
3 3 3 1 3 3 4 5 5 3 3 4 4 3 5 4 1 2 4 7 5 5 5 5 5 4 3 6 11 14 12 11 10 10 9 9 9 9 9 9 9 7 5 4 3 3 3 4 5 6 8 10 11 10 8 8 9 9 10 11 13 13 14 15 15 14 13 12 11 11 10 8 7 6 7 7 7 7 8 7 8 9 10 10 9 8 8 8 8 8 8 8 9 9 9 9 8
3 2 2 2 4 4 4 5 5 2 4 5 4 3 4 3 1 1 3 3 4 6 1 3 1 4 6 10 14 13 11 11 10 11 12 11 10 10 10 9 8 6 5 5 4 3 3 3 4 6 8 10 9 8 8 9 9 9 10 11 13 13 12 13 14 15 14 13 11 11 10 8 7 7 7 8 7 8 8 7 8 9 10 10 9 8 8 9 8 8 8 9 10 11 11 10 8
2 3 1 4 5 3 3 4 5 3 6 8 4 3 4 1 1 1 3 4 3 5 4 3 4 4 6 8 11 12 10 10 10 11 11 11 11 11 10 9 8 6 4 5 5 4 2 3 4 6 8 9 8 8 8 8 9 9 10 12 13 12 11 12 14 14 15 14 12 12 12 10 9 9 9 7 7 7 7 7 7 8 10 10 9 9 9 9 9 8 9 10 10 11 12 11 9
1 3 3 4 3 2 1 3 3 4 6 8 6 5 4 1 1 2 5 5 1 3 4 4 6 8 8 6 8 10 9 8 8 9 10 11 10 9 9 8 7 6 5 6 6 3 2 3 3 6 8 8 8 7 8 8 8 8 10 11 12 11 10 12 12 13 14 14 14 13 13 12 11 11 10 9 8 8 7 7 7 8 9 10 10 10 10 9 9 9 10 10 11 11 12 12 10
1 2 4 4 3 3 0 2 4 4 5 7 7 6 4 1 2 3 5 4 2 4 3 4 7 8 9 7 7 7 7 7 7 8 10 10 9 9 9 9 7 6 7 6 5 3 1 2 3 5 7 8 8 7 8 8 8 9 10 11 11 10 9 11 11 11 12 13 14 13 13 13 13 12 11 11 10 8 8 8 8 9 9 9 10 10 10 10 11 11 10 10 12 13 13 13 12
1 3 1 3 3 3 2 2 3 5 7 6 6 4 3 4 3 2 4 2 4 3 3 6 6 6 9 8 6 6 5 5 6 9 11 11 11 11 11 11 9 9 8 6 5 4 2 2 2 4 6 7 7 7 7 7 8 9 10 11 12 9 9 11 11 12 12 12 13 14 13 13 13 12 12 11 11 10 9 8 8 9 9 10 10 11 11 11 11 11 10 10 12 14 14 13 12
2 2 2 1 2 4 3 3 4 5 7 5 4 4 4 6 4 2 2 2 1 3 5 7 7 7 9 6 5 5 5 6 8 11 12 13 14 13 13 12 10 9 8 7 7 4 3 2 1 4 5 6 7 7 7 7 7 8 10 11 11 8 8 10 11 13 14 13 14 14 13 13 13 12 12 11 11 10 9 9 8 8 9 10 10 11 11 12 11 11 11 11 11 13 13 13 12
1 1 1 2 2 4 4 5 5 6 5 4 6 6 4 5 5 3 2 1 3 6 7 7 7 7 6 6 5 5 5 7 9 12 13 14 14 12 12 12 11 10 10 9 7 5 4 3 2 4 5 5 6 7 7 6 6 7 9 11 11 7 7 10 11 12 15 16 16 15 14 15 15 14 13 12 10 9 9 9 9 8 8 8 9 11 12 12 12 11 12 12 12 12 13 13 13
1 2 1 3 3 3 5 5 4 4 3 5 7 6 4 4 3 3 2 3 4 7 7 6 7 6 5 5 5 6 6 7 10 11 13 13 13 11 12 12 12 12 11 9 7 6 5 4 2 4 5 5 6 7 6 6 5 7 9 11 10 7 6 9 10 10 13 14 15 15 14 15 15 16 15 12 10 9 8 10 10 9 9 8 9 10 11 12 12 11 12 13 13 13 14 13 13
2 5 4 4 5 3 5 4 1 1 2 4 7 7 4 2 2 1 3 4 5 7 7 5 6 6 6 5 5 5 5 8 10 10 8 8 11 12 12 12 13 13 12 10 8 6 6 5 2 4 4 5 6 7 6 6 5 6 9 9 9 7 5 7 8 9 10 11 12 12 12 13 14 15 15 13 10 8 8 10 10 9 10 10 9 10 11 10 10 11 11 12 13 13 13 13 12
5 7 7 6 6 4 5 4 1 0 2 3 8 7 1 3 2 4 4 4 6 8 7 5 5 5 5 4 4 3 5 8 9 8 8 9 12 13 12 13 14 13 12 11 9 8 7 5 2 4 4 5 6 7 7 6 5 6 7 8 9 8 5 5 7 7 8 10 10 10 11 12 12 14 14 12 10 9 9 9 10 10 10 10 10 10 10 9 8 9 10 11 12 13 12 12 12
4 6 6 3 5 4 2 2 2 2 1 4 6 5 4 4 1 4 4 5 5 7 7 5 5 5 4 4 4 3 5 7 7 9 11 12 13 13 13 13 13 13 12 11 9 8 6 4 2 3 4 5 6 7 7 6 5 5 6 7 8 8 6 5 5 6 7 8 10 11 11 11 12 13 13 12 11 11 10 10 10 10 10 10 10 10 10 9 6 6 8 9 11 12 11 12 12
2 4 5 2 5 3 1 1 2 3 1 4 4 3 4 4 3 3 4 6 6 6 6 5 5 4 4 4 4 4 5 6 7 10 11 11 12 13 12 11 12 12 12 12 11 8 6 4 2 3 4 4 5 6 6 5 5 5 5 5 6 7 7 6 5 6 7 8 10 11 11 11 12 13 12 11 12 13 12 12 12 11 10 9 9 10 11 9 6 6 8 9 10 11 11 11 12
3 3 2 3 3 1 4 1 4 3 1 2 6 3 4 5 5 4 5 6 7 7 6 5 5 4 4 4 4 5 5 6 8 10 10 9 11 13 12 11 12 12 12 12 11 8 6 4 2 2 4 4 4 4 4 4 5 5 5 5 5 6 7 7 6 6 6 7 10 11 11 11 12 13 11 11 12 14 14 13 13 12 10 9 9 10 10 8 7 8 9 9 10 10 10 11 11
3 2 2 3 2 2 6 1 6 4 0 1 5 2 3 5 6 4 6 6 7 7 6 5 5 4 4 4 4 4 5 6 8 10 10 10 10 12 12 11 12 12 12 12 10 9 7 4 2 1 3 4 3 4 4 4 4 5 5 5 5 6 7 8 8 6 6 7 10 12 11 10 11 12 11 10 11 14 15 14 14 13 12 11 10 10 9 9 9 9 10 10 11 10 10 10 10
3 3 1 2 2 1 3 2 3 6 3 3 2 2 2 4 5 4 6 7 7 6 6 5 5 5 5 4 4 4 4 5 7 9 11 11 11 11 11 11 12 11 11 11 11 10 8 4 3 2 2 3 3 3 3 3 4 5 5 5 6 6 6 8 8 7 8 8 10 12 10 9 10 10 10 9 10 13 14 14 13 14 13 12 11 11 11 10 10 10 11 11 11 10 9 9 9
4 3 1 2 1 0 1 3 3 5 5 0 2 1 3 4 4 3 6 7 7 7 7 6 6 5 5 4 4 4 5 5 6 10 11 11 11 10 10 10 10 11 10 10 10 10 8 5 4 2 1 2 3 2 2 3 4 5 6 6 6 6 5 7 7 7 8 8 10 11 10 10 10 10 10 9 9 11 13 13 13 13 14 13 11 12 12 11 11 12 13 13 12 10 9 8 8
2 1 1 1 1 2 3 3 3 5 4 3 3 2 7 7 5 3 6 7 7 8 7 6 6 6 6 5 5 5 5 6 8 11 12 11 11 10 10 9 9 10 10 10 11 10 7 5 4 3 2 1 2 1 2 3 4 5 5 5 5 5 5 6 7 8 8 8 9 10 9 9 10 9 9 8 8 10 12 12 13 13 13 13 11 11 13 12 11 12 13 14 13 12 10 7 7
5 5 4 3 2 3 4 4 4 7 5 3 5 4 7 6 5 5 5 6 7 8 6 5 5 5 5 5 5 5 6 8 9 11 10 10 11 10 10 9 9 9 10 11 12 11 8 6 6 4 3 1 1 1 1 3 4 4 5 5 6 5 5 6 7 7 7 7 8 9 8 8 9 9 9 8 9 10 12 13 14 14 13 12 12 12 12 12 11 12 13 14 14 14 13 8 6
6 5 4 3 3 3 4 3 4 7 5 3 6 5 7 7 6 5 5 5 6 7 6 6 6 5 6 6 6 7 7 7 6 8 10 9 10 10 9 10 10 10 11 12 13 11 9 8 6 5 3 2 2 1 2 3 4 4 5 6 7 7 6 6 6 6 6 7 8 8 8 7 8 8 8 8 9 10 12 14 15 15 14 13 12 12 12 11 11 11 12 13 15 17 17 12 6
5 5 3 2 3 4 4 2 4 7 4 3 4 4 8 8 6 5 4 5 8 9 8 8 7 6 5 6 8 8 6 4 3 6 8 9 10 11 10 11 12 12 12 13 13 12 10 9 7 5 3 2 2 1 1 3 4 4 5 6 7 7 7 6 7 6 6 6 7 7 7 7 7 7 8 7 8 10 11 13 15 15 15 14 12 12 13 13 12 11 11 12 15 17 20 18 11
4 3 3 2 3 3 3 1 4 7 3 2 4 5 8 7 5 5 6 8 8 8 9 8 7 7 6 7 8 7 6 4 4 5 7 10 12 12 12 13 14 13 13 14 13 12 11 9 8 7 5 3 1 1 1 2 3 4 5 6 7 7 7 6 7 7 6 6 6 6 6 6 6 6 7 7 8 9 10 11 14 15 15 15 14 13 14 15 14 13 13 12 13 15 17 20 18
3 3 3 2 3 2 1 1 3 4 1 1 5 4 5 5 4 4 6 7 6 4 7 7 6 7 7 7 7 7 7 6 5 4 5 8 10 12 13 14 15 14 14 14 14 13 12 10 8 8 7 4 2 2 1 2 3 3 4 5 6 7 6 6 6 6 6 5 5 5 6 6 6 5 6 7 7 9 9 10 11 13 14 15 15 15 15 15 15 15 14 13 13 13 14 17 19
2 4 5 3 3 3 2 3 4 1 1 2 5 2 5 3 2 5 4 3 5 4 5 6 5 6 5 5 6 6 6 6 6 5 4 7 10 13 14 14 15 14 15 15 14 13 12 10 8 8 7 5 3 2 2 3 3 3 4 5 5 6 6 6 6 6 6 6 5 5 5 6 5 5 5 6 7 8 8 9 10 11 12 13 13 14 15 15 15 15 16 15 15 13 12 14 16
3 3 8 7 6 4 3 6 6 3 2 2 4 3 5 5 2 6 4 2 6 4 4 7 6 4 4 5 6 5 5 4 4 4 5 7 10 11 11 12 13 15 15 15 14 13 11 10 8 8 7 6 4 3 3 4 4 4 5 4 5 6 6 6 7 7 7 6 6 5 6 5 5 5 5 5 6 7 8 8 8 9 10 11 11 12 12 13 13 14 15 15 16 14 12 13 14
2 5 10 8 7 7 7 8 6 3 4 3 3 4 3 5 4 6 3 3 7 4 5 8 5 5 5 6 6 5 5 4 4 4 4 6 9 9 9 12 14 15 16 15 14 13 11 10 8 7 7 6 4 3 3 3 4 4 4 4 4 5 7 7 7 7 7 6 6 5 5 5 5 5 5 4 5 6 7 7 8 8 9 9 10 10 11 11 11 12 12 13 14 13 13 15 15
3 5 6 8 7 7 8 8 4 2 2 3 4 4 1 4 5 6 2 3 5 6 6 7 5 6 6 6 6 6 6 5 5 5 5 6 8 10 12 14 16 16 16 15 14 13 11 9 8 7 6 5 4 4 4 4 4 4 3 3 4 5 6 7 7 7 6 6 6 6 5 5 5 5 5 5 5 5 6 6 7 8 8 8 8 8 9 10 10 10 10 11 11 12 12 13 13
6 1 8 7 6 6 6 6 3 1 2 2 4 2 1 4 6 5 2 2 5 7 8 8 7 6 6 7 7 6 6 5 5 5 5 7 10 13 15 16 17 17 16 15 13 12 11 9 7 7 6 5 4 4 5 4 4 4 3 3 4 5 5 6 7 7 7 7 7 7 6 5 5 5 5 6 5 5 5 5 6 7 7 8 7 7 8 8 8 9 9 10 11 11 11 11 11
4 6 10 7 7 6 4 5 3 3 3 3 6 2 2 4 6 3 3 1 6 8 7 7 6 5 5 6 7 6 5 4 5 4 5 8 12 15 15 14 15 16 15 14 13 12 11 9 8 7 6 5 5 5 5 5 5 5 4 4 5 5 6 7 7 7 7 7 8 7 6 5 5 5 5 6 6 5 5 6 6 7 7 7 7 7 7 7 7 7 8 8 9 10 9 9 9
5 7 9 7 6 5 4 3 4 4 2 5 6 5 5 2 5 3 2 3 6 6 5 5 5 5 6 7 6 6 5 4 5 4 4 8 10 11 11 12 13 13 14 13 13 12 11 10 8 7 6 6 6 6 6 5 5 5 5 5 6 6 7 7 7 7 7 7 7 7 6 6 5 5 6 6 6 6 6 6 7 7 7 7 7 7 7 7 6 6 6 6 7 7 7 7 7
6 5 6 5 4 4 4 4 3 2 3 6 4 3 6 1 5 4 5 6 5 6 6 7 7 8 7 7 6 6 5 5 5 4 4 5 6 7 9 11 11 11 12 13 13 13 12 11 10 9 8 7 7 7 6 6 6 6 5 6 6 7 7 6 6 6 6 6 7 7 7 6 6 6 6 6 6 7 7 7 7 8 8 8 8 8 7 7 7 6 6 5 5 5 5 5 5
6 6 6 5 2 3 2 2 1 2 5 3 1 2 3 4 7 6 7 8 7 7 8 8 10 10 9 8 7 6 5 5 5 5 5 4 6 8 11 12 11 12 13 13 13 14 13 12 11 10 9 8 7 7 7 6 6 6 6 6 6 6 5 5 5 5 5 6 7 7 7 7 6 7 6 6 5 6 7 7 8 8 8 9 8 9 9 9 9 9 8 7 7 6 5 6 6
5 6 5 5 3 3 0 3 1 2 4 2 2 2 1 4 5 5 7 7 7 8 7 7 10 10 10 8 7 6 5 6 5 5 5 5 7 10 13 14 14 14 14 14 13 13 14 13 12 12 10 8 8 8 8 8 7 6 6 6 5 4 4 4 4 4 4 5 5 5 5 6 6 6 6 5 4 4 5 6 7 7 7 8 9 9 9 10 10 11 11 11 10 9 8 8 8
2 3 6 5 4 4 3 3 2 3 3 2 2 2 2 2 3 4 6 7 5 6 4 3 5 4 4 5 5 6 6 5 5 5 6 6 8 12 14 14 15 16 16 15 14 13 13 13 12 12 10 9 9 9 9 9 8 6 6 5 4 3 3 3 4 4 4 4 5 5 5 5 6 6 5 4 4 4 5 5 6 7 7 8 9 10 10 10 11 12 13 14 14 13 12 12 11
1 2 5 3 4 5 2 2 5 4 1 1 1 3 3 4 5 5 3 3 1 3 3 4 4 3 5 5 5 6 6 5 5 5 6 6 9 12 14 15 16 17 17 17 15 14 13 13 12 12 10 9 9 9 9 9 8 7 6 6 5 5 5 5 5 5 5 5 6 7 6 6 7 6 6 5 6 6 7 7 8 9 9 10 10 11 12 12 12 14 15 15 16 15 15 16 15
1 1 3 4 4 8 5 1 0 3 3 1 1 3 5 3 3 5 5 5 4 3 3 4 4 4 5 5 6 6 6 6 6 6 6 6 8 12 14 16 17 18 19 18 17 16 14 13 12 11 10 10 10 10 9 8 7 7 7 7 6 6 6 6 5 5 5 6 7 7 7 7 7 7 7 7 7 8 8 9 10 11 11 12 12 13 14 14 15 16 16 17 18 17 17 18 18
5 3 5 3 3 5 5 2 3 4 2 3 2 2 4 2 2 5 6 3 1 1 2 3 3 4 5 6 6 6 6 6 6 6 5 6 9 12 14 16 17 19 20 20 18 17 16 15 13 12 12 11 11 10 9 7 7 7 7 7 6 6 6 6 6 6 6 7 7 7 7 8 8 8 8 9 9 10 10 11 12 13 13 14 15 15 16 16 17 18 19 19 20 19 20 21 21
4 5 4 4 3 1 2 2 1 1 1 3 4 3 3 3 4 4 3 4 6 4 2 3 4 6 6 6 6 6 6 5 5 5 5 6 8 12 14 16 17 19 20 20 18 17 17 17 15 14 13 12 11 11 10 9 9 8 8 7 7 7 7 7 6 6 7 7 7 7 8 9 9 10 11 11 12 12 13 14 15 16 17 17 17 17 18 18 19 20 21 22 22 22 22 23 23
3 2 3 2 3 4 3 2 2 3 3 2 3 4 3 6 5 5 8 8 8 7 5 6 8 8 7 6 6 6 6 7 6 6 6 6 9 13 16 17 17 19 20 20 19 18 18 17 17 17 15 13 12 12 11 11 11 10 9 8 8 8 8 7 7 7 7 8 8 9 10 11 11 12 13 13 14 14 14 15 16 17 18 18 19 19 18 18 19 20 21 22 23 23 24 25 25
2 2 1 1 2 2 2 2 2 3 4 3 1 1 5 6 4 7 9 8 8 10 9 8 8 7 6 6 7 7 7 7 7 7 6 6 9 13 16 17 18 19 20 20 20 19 18 17 18 18 17 15 13 12 12 12 11 11 10 10 9 8 7 7 7 8 9 9 10 11 12 13 13 13 13 14 14 14 14 14 15 15 16 16 17 17 16 16 17 18 18 19 20 21 22 23 24
5 4 4 3 3 4 3 1 1 2 3 4 4 2 7 6 3 6 7 8 9 9 8 8 7 7 7 6 7 8 7 7 8 7 7 7 9 13 15 16 17 18 19 19 19 19 18 18 18 18 17 16 14 12 11 11 11 11 11 10 9 8 8 9 9 10 11 11 12 13 13 13 13 13 13 12 12 11 11 11 11 12 12 13 13 13 13 12 13 13 14 15 16 17 19 20 21
Wind_Direction
106 108 117 121 117 126 83 61 95 330 78 96 319 22 278 289 24 16 350 339 16 354 341 341 348 43 85 106 126 115 65 85 170 148 186 204 95 123 148 139 130 125 111 96 82 75 66 64 61 63 63 57 54 49 45 39 36 33 32 30 30 32 32 31 31 36 42 43 40 37 35 32 28 25 27 34 44 41 31 23 18 15 14 12 10 13 17 21 20 18 13 1 348 337 326 321 315
111 118 123 129 116 125 198 70 98 335 61 85 303 163 277 333 47 6 308 315 8 309 316 331 15 57 81 113 122 108 46 21 75 131 102 111 107 107 124 135 130 118 107 95 83 77 69 64 63 62 56 53 51 45 43 40 39 39 39 41 43 43 41 37 31 24 22 31 40 41 37 34 30 23 20 17 32 50 45 27 15 11 8 8 5 7 16 22 19 16 10 355 350 341 320 312 322
123 129 120 135 81 42 95 51 87 82 89 139 279 264 312 27 129 222 258 285 299 301 300 295 11 21 41 80 61 72 47 7 57 75 83 100 102 110 122 129 125 111 104 99 87 82 78 69 62 60 55 52 51 49 46 43 43 43 48 54 55 52 48 45 40 31 18 6 14 37 40 33 29 29 27 17 20 41 62 42 19 8 1 2 1 4 9 14 17 10 1 352 359 353 328 330 2
155 143 49 143 40 30 62 48 114 119 125 182 257 282 338 164 231 257 291 306 301 316 347 341 34 345 26 66 37 57 67 359 44 53 94 65 75 135 127 123 129 117 108 101 88 87 83 73 68 63 57 57 58 56 48 46 47 51 58 60 55 52 48 45 42 38 29 13 355 8 46 44 29 26 27 24 23 18 67 65 31 7 358 359 356 0 6 7 15 4 356 7 9 352 337 352 13
138 142 282 78 87 63 89 80 100 96 159 182 160 272 286 220 253 299 301 313 313 356 62 42 37 327 47 65 19 53 27 344 15 42 88 59 95 134 125 124 131 119 113 104 100 98 89 81 76 67 62 67 66 58 52 54 59 62 64 60 54 49 44 40 38 34 31 26 13 349 346 61 39 20 16 15 24 12 53 77 55 16 358 357 357 358 6 4 13 3 358 14 5 353 348 353 7
125 148 239 54 103 159 111 96 91 89 198 179 160 248 247 226 239 285 303 325 341 22 74 71 54 342 67 51 20 62 7 325 327 26 80 103 121 135 130 131 129 120 117 112 115 110 100 93 79 74 76 76 67 58 58 63 66 67 63 58 54 46 37 31 31 29 27 25 23 18 356 343 22 17 12 4 20 18 31 67 75 38 3 358 0 358 3 360 7 2 1 11 358 356 354 356 12
106 174 12 55 49 44 97 114 136 161 223 184 183 226 240 248 218 357 338 351 6 21 63 83 96 89 57 18 38 40 22 15 3 49 100 121 134 142 140 135 125 124 123 121 120 108 98 90 86 88 89 80 70 63 61 62 62 60 56 53 48 43 34 21 23 30 28 19 14 19 18 6 342 348 19 4 15 22 23 41 68 57 13 2 2 357 357 357 5 3 12 14 0 351 348 8 23
81 191 20 82 44 30 89 95 145 192 223 194 205 218 234 239 185 116 40 37 14 15 48 52 93 102 18 345 65 16 26 38 61 90 121 131 138 141 137 132 127 131 128 125 115 101 90 84 95 99 91 82 74 67 61 59 57 53 47 43 39 42 41 24 18 25 26 18 4 3 11 14 1 339 14 8 15 27 24 23 44 47 23 9 356 350 352 359 6 9 23 16 359 345 346 14 24
58 40 42 79 75 41 67 44 126 213 243 223 226 243 253 235 166 117 94 79 134 144 26 329 345 122 103 22 28 352 23 42 84 113 132 136 136 132 132 130 130 133 129 124 108 99 90 85 99 98 86 78 72 64 58 56 54 51 44 37 37 42 41 24 14 17 18 15 3 350 352 4 3 356 9 29 33 40 36 26 40 35 21 11 344 344 353 359 1 8 24 13 352 347 356 12 17
13 37 110 73 80 55 43 44 250 245 259 260 245 262 304 320 61 104 116 106 158 159 128 136 27 105 118 58 0 335 5 31 114 131 139 137 133 132 133 131 134 135 129 120 109 102 94 91 96 93 78 70 65 56 50 48 47 44 38 36 41 41 32 18 13 17 15 9 0 346 342 347 352 359 26 59 53 50 44 34 47 35 4 3 337 343 353 352 353 3 19 3 345 354 8 6 3
12 352 96 72 66 80 136 193 246 266 282 336 323 262 266 302 40 66 101 116 194 148 156 160 85 110 102 68 310 357 358 65 141 145 145 142 141 139 138 139 142 137 127 118 112 105 100 96 94 86 69 60 54 45 38 36 37 33 29 31 38 36 23 15 14 15 13 8 360 345 339 348 356 7 43 74 59 56 51 41 50 44 17 8 344 341 349 348 352 5 15 356 350 5 16 7 360
59 336 64 83 106 142 172 173 249 278 312 346 309 253 193 198 112 151 149 122 108 73 301 280 153 124 88 75 266 342 1 153 154 153 152 150 148 147 149 148 143 133 126 122 114 103 98 93 87 77 60 49 39 33 27 28 32 26 24 32 39 34 18 12 13 12 12 11 3 359 354 354 14 35 51 70 54 56 58 49 52 53 46 29 4 354 350 355 0 11 12 358 1 12 24 20 13
104 145 81 97 165 145 145 146 264 298 324 278 201 228 185 156 175 187 151 105 85 72 295 269 129 85 86 123 271 334 318 169 161 162 164 158 157 159 159 151 142 137 131 125 111 97 90 82 76 62 48 37 29 26 22 27 31 25 26 34 40 33 17 12 13 11 21 26 18 24 26 3 19 45 39 45 52 50 52 52 53 50 47 46 37 21 4 2 7 13 6 0 10 11 19 27 24
129 152 103 111 87 120 151 145 237 206 272 251 182 200 196 134 168 165 119 92 263 245 252 202 135 86 93 138 184 295 225 180 171 176 178 170 173 178 174 165 155 148 139 129 107 87 79 75 68 50 37 27 20 19 20 28 34 31 32 35 35 29 18 12 14 15 30 39 33 33 38 20 21 44 37 33 48 43 42 48 48 40 39 45 41 31 17 8 9 10 0 2 13 8 9 20 19
134 124 91 107 51 73 183 180 161 156 233 238 173 168 123 81 125 127 123 114 269 265 107 119 132 80 158 167 182 218 193 182 181 188 191 189 199 211 205 192 176 162 154 139 99 77 76 73 60 42 29 21 16 17 24 32 39 37 35 34 31 26 16 12 14 17 29 39 37 35 36 35 29 37 24 20 29 23 31 43 44 42 42 42 35 31 25 17 17 17 10 8 14 12 9 12 7
124 108 69 92 128 186 206 188 127 124 231 232 183 155 89 20 72 116 235 134 92 353 43 4 323 51 159 171 195 188 178 181 189 200 207 214 226 229 216 204 194 185 178 155 96 76 79 69 50 38 27 22 19 22 30 36 42 38 34 35 32 24 15 12 16 16 21 30 34 35 37 41 40 42 28 23 25 21 35 43 43 48 46 41 34 32 34 33 31 25 20 18 20 20 19 16 5
66 84 70 91 163 196 204 184 166 160 211 214 182 160 108 55 49 125 2 71 96 28 17 320 320 36 157 164 157 167 172 182 193 205 213 219 224 219 211 208 209 204 194 172 116 93 85 67 48 39 30 25 23 27 35 40 42 40 34 29 25 21 15 13 19 21 19 25 31 33 37 40 37 36 35 37 37 38 47 46 47 52 48 46 43 40 43 41 37 31 28 30 29 27 30 29 19
52 76 88 172 185 193 197 183 195 167 152 178 177 167 126 123 163 156 69 61 91 73 21 298 323 17 108 114 130 151 167 178 188 193 190 195 198 199 206 212 213 207 196 181 154 130 105 70 52 41 31 26 26 33 42 44 46 46 35 24 19 18 16 16 24 27 25 29 35 36 39 39 32 30 43 52 55 56 52 51 60 60 54 50 49 50 48 43 38 32 28 31 33 33 35 31 26
87 105 91 240 200 204 212 178 193 165 140 155 149 133 111 131 181 119 99 92 110 98 26 261 42 48 86 102 120 136 154 163 173 176 176 183 188 194 200 205 206 205 197 181 167 149 120 75 57 42 30 26 31 43 49 48 52 50 35 24 18 18 17 21 29 31 32 38 43 45 45 45 42 46 63 68 66 65 56 58 67 62 55 50 51 56 55 51 42 33 29 30 34 37 38 32 24
129 115 100 249 206 209 244 192 193 172 148 135 127 130 96 140 213 61 121 112 105 140 187 190 129 123 109 99 110 125 144 155 170 178 182 188 194 199 196 199 203 201 193 179 170 154 115 78 61 39 28 27 36 49 52 52 57 51 37 26 19 22 24 23 31 33 34 41 46 52 55 59 63 67 74 74 66 61 57 61 62 55 52 49 50 54 57 55 45 37 34 34 36 38 39 36 28
131 128 175 232 184 148 261 206 174 135 136 130 130 125 108 184 92 96 131 106 10 215 216 193 157 148 130 110 112 127 145 155 177 187 191 197 201 205 203 205 206 199 186 178 173 155 104 84 59 36 29 33 44 50 53 55 61 54 40 30 21 28 30 23 31 32 33 38 42 50 57 62 66 65 65 64 60 56 54 54 52 50 49 50 50 50 52 50 43 38 35 38 40 41 41 42 39
121 222 195 196 149 117 246 162 123 114 110 113 126 127 132 152 72 105 124 122 224 221 218 162 145 144 135 130 130 137 150 165 187 191 196 206 211 212 212 212 208 199 188 181 177 165 134 108 63 37 33 42 51 50 53 58 64 56 43 34 26 33 34 24 29 28 28 34 37 42 49 54 54 54 53 51 52 52 51 48 46 49 51 54 52 50 50 45 41 37 37 42 42 44 47 46 44
98 287 222 186 164 131 157 134 112 119 107 116 139 134 122 99 77 98 107 188 231 198 154 121 116 126 127 131 140 150 166 185 200 203 205 212 218 219 216 215 210 201 191 185 183 183 177 144 77 43 36 48 56 48 51 59 66 57 46 38 31 38 39 29 30 27 24 28 34 38 40 42 41 42 42 42 44 46 51 48 44 46 50 53 52 51 49 44 41 39 41 44 43 47 50 49 47
111 321 1 147 145 108 119 120 107 105 109 140 138 97 100 112 119 99 58 269 214 119 115 108 109 116 123 135 153 170 186 200 213 219 220 220 223 224 220 218 213 206 196 189 193 194 186 171 99 45 36 49 52 44 46 54 64 58 47 37 32 44 44 33 34 33 30 28 31 34 35 34 32 32 30 32 36 39 48 49 41 41 46 48 48 49 47 43 40 39 43 44 44 46 47 48 50
106 22 24 103 65 72 79 84 92 90 101 128 101 93 136 143 129 96 21 251 133 118 110 109 118 120 136 161 173 184 196 210 222 227 227 227 227 228 224 220 216 210 200 193 198 196 188 184 121 41 34 47 43 38 40 46 60 53 43 36 32 45 48 36 36 39 40 36 33 31 28 25 24 23 22 21 24 32 45 51 45 45 52 48 43 45 44 42 40 42 48 49 47 46 47 48 51
198 98 89 116 86 81 78 68 79 88 105 115 95 101 160 169 110 55 309 210 149 122 117 124 134 143 168 184 190 188 195 208 217 223 227 227 226 228 224 219 219 213 203 198 198 195 190 180 114 37 32 45 37 33 34 37 50 48 41 35 32 43 50 38 34 39 43 42 37 32 25 19 16 15 17 17 19 29 44 56 56 54 60 53 42 42 43 42 43 50 56 54 52 50 50 50 51
142 88 75 92 94 86 80 77 82 79 77 115 118 128 170 208 95 78 255 203 152 127 129 142 144 170 193 202 210 196 202 210 210 212 215 216 216 222 221 217 218 211 202 200 198 195 186 170 101 32 37 46 35 28 27 34 45 45 40 34 32 39 45 37 32 34 39 39 35 31 24 17 14 12 14 20 24 33 45 56 61 57 55 50 41 38 40 43 49 58 62 57 53 52 52 52 53
127 106 73 53 71 67 75 92 194 45 56 132 132 127 147 346 87 169 200 180 157 143 151 168 166 194 207 216 226 207 220 223 216 205 191 197 207 213 216 213 211 205 202 202 199 191 179 162 87 33 47 49 36 27 27 36 45 45 41 33 31 34 37 33 28 26 31 32 26 24 21 17 20 14 14 24 32 39 46 53 58 54 47 41 35 31 34 41 52 64 65 61 55 54 57 57 57
124 109 82 38 50 68 107 126 180 86 91 184 124 75 350 353 130 178 171 158 151 149 166 184 192 216 221 231 238 221 236 236 224 211 202 202 205 206 209 208 204 202 201 200 200 190 176 158 87 40 53 53 39 32 30 38 43 43 38 27 25 28 33 28 21 19 20 25 19 16 16 19 24 17 18 34 39 41 42 45 50 50 43 34 27 24 26 33 48 64 62 60 55 53 61 63 63
67 67 87 48 26 51 210 169 130 82 135 188 96 53 301 303 248 192 155 151 143 156 186 197 206 227 232 240 243 241 246 238 227 222 216 208 204 202 202 202 201 204 201 197 201 192 177 164 95 45 58 54 41 36 32 39 40 36 32 20 17 20 26 23 15 12 12 19 17 12 13 21 26 21 29 44 42 39 37 38 42 44 41 30 22 20 23 29 43 59 56 55 52 51 61 65 66
47 36 56 52 58 277 292 267 132 95 193 157 82 99 241 277 267 196 163 159 151 174 203 207 216 235 241 248 245 251 253 241 240 234 226 218 209 203 201 201 202 206 203 198 200 190 181 177 123 57 62 58 50 47 38 40 36 31 29 22 13 7 11 13 11 10 11 16 17 14 14 21 28 28 40 49 40 35 33 36 41 41 37 30 24 22 25 33 46 53 52 53 53 53 60 63 65
46 65 337 2 96 265 302 245 152 136 279 16 74 111 254 270 255 204 168 165 163 185 210 214 226 238 245 258 248 252 264 258 255 246 235 228 217 207 205 206 205 207 206 201 196 187 186 186 168 94 70 70 66 58 45 37 26 20 15 11 6 358 359 4 10 16 15 19 20 20 22 25 31 35 46 50 34 30 36 43 45 42 37 32 30 26 29 43 50 50 48 48 50 54 57 59 64
4 88 191 302 84 304 299 269 192 147 115 9 76 148 249 265 253 208 171 173 173 190 215 220 228 236 238 249 249 250 264 272 267 251 239 229 223 217 214 215 212 212 209 201 195 190 190 191 187 164 83 75 74 66 45 24 11 5 358 356 354 350 352 0 11 19 18 25 26 26 33 36 36 42 49 47 32 29 39 45 43 38 32 29 33 33 37 50 55 52 49 44 42 45 51 57 66
322 39 82 247 151 184 266 288 267 134 114 119 99 118 247 266 279 211 183 180 179 197 217 220 222 231 232 231 240 244 246 258 260 249 240 229 225 226 225 223 217 216 211 204 201 197 194 195 189 178 142 78 80 73 41 11 2 1 357 357 356 353 355 0 9 15 19 30 31 31 40 42 42 49 49 46 38 34 38 37 33 29 23 22 29 37 44 52 57 56 53 47 38 34 38 52 68
208 170 107 264 180 181 215 245 229 142 121 167 141 293 264 272 296 247 203 182 186 210 215 219 222 224 229 226 229 233 237 245 248 246 242 233 227 227 227 222 216 214 209 204 202 197 196 196 190 193 208 99 83 70 31 357 349 358 4 6 4 3 359 358 1 6 16 29 31 34 43 43 44 51 50 46 43 39 36 32 27 23 20 20 24 36 46 53 58 57 53 50 46 42 38 48 75
162 169 142 162 187 229 222 235 218 155 126 167 175 227 259 270 276 242 215 188 199 224 222 228 231 228 231 232 233 228 230 240 245 246 243 236 229 225 222 216 209 206 203 200 198 196 199 197 193 201 204 149 108 76 13 347 349 355 2 6 7 6 359 359 3 4 14 27 30 35 43 42 43 50 51 43 39 36 33 30 26 26 29 30 33 41 48 53 58 55 50 45 44 49 48 56 86
128 130 119 160 196 264 244 241 218 151 133 216 195 215 255 265 263 243 212 190 214 232 233 236 235 235 234 235 241 234 232 239 240 238 235 231 226 220 214 206 198 195 196 198 197 199 202 201 202 206 200 178 162 121 346 343 357 359 356 2 4 4 1 5 12 10 13 22 28 33 39 41 39 45 49 38 31 30 31 34 32 34 38 41 48 55 56 61 61 56 53 46 43 46 46 51 75
103 128 130 164 210 248 258 226 185 156 150 232 181 202 255 261 263 245 185 188 222 223 221 229 229 233 238 238 244 240 244 248 198 212 218 213 212 209 204 197 194 195 195 198 201 203 205 207 213 216 214 210 197 209 314 336 353 355 353 357 358 356 356 0 6 8 5 7 17 23 31 38 35 37 43 38 28 24 31 38 38 40 42 44 57 65 63 65 64 60 58 55 53 49 45 44 51
88 115 135 182 222 231 298 350 149 161 171 256 177 189 253 269 262 229 190 201 227 220 217 226 217 220 231 232 238 241 248 251 217 207 201 198 197 195 193 193 196 199 198 201 203 205 207 211 219 222 223 229 222 226 307 340 342 342 343 348 352 352 353 352 353 357 357 354 1 10 20 32 34 33 36 36 29 25 32 39 41 44 46 49 59 63 60 60 57 55 53 55 57 54 50 45 45
103 117 133 239 231 158 264 314 131 155 153 154 164 188 270 290 288 252 218 215 235 231 226 233 215 215 227 229 233 230 229 233 225 214 191 186 184 182 187 191 195 199 200 203 204 206 210 212 219 224 226 231 224 223 294 316 313 326 336 341 347 349 351 353 356 1 4 3 0 4 13 22 29 31 26 27 27 27 31 36 40 45 50 53 59 61 58 55 51 46 43 45 48 50 53 50 48
253 160 168 216 200 171 188 154 125 108 358 100 112 51 310 305 288 266 270 252 246 240 228 238 231 222 229 238 241 229 222 219 207 204 189 173 177 182 187 191 195 199 203 207 208 208 210 212 217 224 226 229 223 214 263 284 286 304 323 331 338 351 359 3 8 8 13 17 10 6 8 11 21 26 18 14 17 21 27 32 35 42 49 54 57 59 58 54 50 46 41 41 43 45 52 55 52
298 225 203 195 166 149 125 122 112 97 280 253 110 79 297 310 281 255 285 267 233 232 225 236 232 212 211 228 238 234 228 215 190 194 184 174 181 183 186 193 196 202 208 211 213 212 213 214 216 220 222 224 220 215 247 272 281 294 310 321 333 347 353 360 3 358 1 12 12 5 1 3 12 16 13 6 4 9 17 23 28 34 41 46 49 51 52 50 47 46 44 42 43 44 49 54 51
315 240 203 182 143 123 134 140 123 137 226 267 98 137 258 314 295 264 285 231 238 259 244 241 229 200 205 219 228 227 220 208 180 169 166 175 182 179 187 199 202 209 214 214 216 217 216 216 216 215 216 216 211 215 240 259 277 294 306 315 326 334 335 345 353 351 354 4 9 5 358 356 359 3 7 2 354 355 2 11 16 20 26 33 38 40 40 40 39 41 40 40 43 44 47 50 46
234 247 167 151 139 138 160 155 133 170 199 350 30 113 147 307 276 279 291 205 255 279 253 250 236 205 208 219 221 214 209 200 182 170 169 183 185 186 196 204 209 215 217 216 216 218 217 216 215 212 210 208 205 214 235 249 267 286 298 306 319 326 328 338 346 344 346 351 355 360 358 354 350 350 356 356 347 340 346 356 2 5 9 15 22 26 27 29 32 35 35 34 37 39 43 45 43
246 223 103 124 129 136 158 141 115 52 79 335 316 76 104 274 275 314 18 176 265 265 242 241 234 211 206 216 219 215 208 190 181 178 179 190 194 200 206 209 213 217 218 218 218 219 217 213 212 210 209 208 209 222 235 243 254 267 278 294 312 326 328 335 339 337 340 344 346 350 351 353 352 346 348 352 346 335 331 338 346 350 352 359 6 8 11 17 23 28 30 31 31 31 33 34 38
227 110 90 86 78 84 102 108 102 38 49 250 255 157 126 277 281 327 34 249 255 250 243 238 229 217 205 213 220 213 200 177 185 187 186 201 204 207 211 213 217 219 218 219 219 219 216 212 211 212 212 211 213 223 230 236 245 254 265 282 301 319 327 329 331 335 340 344 349 351 347 349 354 346 341 344 345 340 330 325 331 334 332 338 349 353 356 1 9 17 20 24 28 29 29 29 33
131 96 78 68 53 51 55 65 86 61 345 262 240 171 129 309 280 242 189 225 220 216 247 245 221 219 208 212 219 208 196 183 184 185 195 212 214 212 214 216 220 221 219 218 218 218 215 213 214 214 214 211 213 222 228 237 246 252 262 277 294 310 320 323 325 333 341 344 353 0 359 357 357 351 342 339 339 337 333 325 324 323 319 321 329 336 338 340 347 358 4 10 17 23 26 26 28
92 88 87 81 18 17 32 4 48 104 265 275 257 150 118 162 265 244 230 240 215 192 214 214 207 215 211 206 209 202 195 184 173 177 189 199 203 205 210 216 220 218 217 217 215 216 216 215 217 219 216 211 214 225 231 239 246 252 264 278 292 306 314 318 324 336 346 352 357 2 4 4 359 353 348 344 341 335 330 326 322 320 318 317 317 320 321 321 324 328 336 342 347 359 8 9 10
80 94 94 90 23 14 24 326 47 203 250 266 224 127 120 228 249 253 251 250 228 208 208 197 195 206 208 204 201 195 187 180 174 177 179 181 187 192 200 207 210 210 214 215 215 215 215 216 219 222 219 214 219 228 233 239 246 254 266 278 289 299 305 313 324 337 349 353 355 360 3 5 3 1 357 353 348 336 329 327 324 321 317 315 312 310 310 311 312 313 315 315 317 325 329 332 338
132 131 122 120 103 68 307 273 293 256 264 274 239 210 301 281 262 241 250 256 231 218 220 200 192 201 204 199 189 181 181 182 180 178 178 185 192 193 197 200 201 205 211 213 214 213 213 216 221 223 222 219 223 232 237 243 248 256 266 274 280 284 291 304 315 326 339 341 341 346 349 353 358 3 4 2 355 334 324 322 319 317 314 310 307 306 306 304 304 305 304 303 304 304 302 304 309
163 144 124 140 149 138 193 221 195 223 262 310 281 204 174 242 253 239 253 271 240 211 223 201 187 191 174 161 160 168 182 185 179 181 184 192 195 193 195 197 199 202 205 209 212 211 212 217 221 224 225 223 227 235 241 247 252 254 258 259 259 260 266 277 287 299 309 315 319 322 326 331 333 339 344 346 342 328 319 313 307 307 307 303 300 299 300 300 298 297 298 298 298 298 293 291 293
268 117 106 155 179 137 125 176 173 178 150 45 249 221 211 220 261 291 309 333 10 148 152 152 156 128 117 140 166 174 183 184 180 184 187 192 195 193 192 195 198 200 201 205 209 210 212 217 222 225 227 225 227 234 240 249 251 246 241 239 240 249 257 265 274 286 296 303 307 308 313 318 317 320 323 320 321 319 317 316 311 309 307 303 300 297 295 295 293 292 292 292 294 295 292 290 291
147 138 170 214 164 117 111 165 84 81 128 199 264 260 296 314 289 320 25 46 40 68 126 154 157 138 140 168 182 181 184 184 184 187 185 184 187 191 193 195 197 198 199 203 208 211 211 215 220 222 224 224 225 230 238 245 242 232 228 228 235 243 249 259 272 285 297 299 298 300 306 312 313 315 315 312 311 311 311 312 312 313 312 308 305 302 298 296 293 290 289 289 290 292 289 287 288
120 189 199 180 109 98 107 116 19 40 163 268 325 263 293 338 277 321 11 47 100 152 140 134 140 155 178 192 187 185 185 178 178 176 175 181 184 187 192 197 199 198 200 203 208 212 212 214 218 220 222 223 222 227 233 233 226 219 218 221 227 236 243 257 271 285 296 297 298 304 308 312 319 319 317 316 314 312 313 311 311 312 312 309 307 305 301 298 294 291 290 290 291 291 288 286 286
127 181 162 116 130 161 102 124 128 98 179 283 318 302 271 204 221 283 289 215 204 200 174 154 178 193 199 198 189 183 173 166 173 170 172 187 188 186 189 195 200 200 202 206 209 214 216 217 220 222 223 223 224 229 230 227 223 219 219 223 229 237 246 258 270 283 291 295 303 312 313 314 319 320 319 320 318 317 317 315 313 313 312 311 309 307 303 299 295 292 291 291 292 291 288 288 289
48 88 73 67 137 158 152 144 153 143 152 236 309 331 273 227 216 203 212 214 193 185 193 197 206 207 199 191 183 179 177 178 181 178 181 190 192 191 190 194 200 202 204 208 211 217 219 219 222 225 227 229 231 232 230 229 227 227 229 233 237 241 248 258 270 280 286 294 305 311 313 314 317 318 318 318 317 317 317 317 317 316 315 315 313 311 310 305 299 296 294 294 294 292 288 289 291
71 78 65 5 68 123 148 93 76 123 138 175 178 309 265 251 210 190 207 211 193 191 194 201 214 210 199 193 183 182 187 186 183 179 182 188 193 196 195 196 200 203 207 211 215 218 219 220 223 225 228 232 235 233 229 228 227 231 236 237 239 242 249 261 270 278 285 294 302 306 310 313 317 320 319 319 320 321 322 322 322 321 319 319 317 317 316 312 308 305 302 300 299 296 293 293 293
148 157 186 173 130 125 121 69 332 95 116 165 158 203 267 260 209 202 205 196 202 203 187 192 214 206 194 194 189 188 188 186 186 183 181 184 190 195 199 200 201 204 208 211 214 215 216 219 222 227 231 234 235 231 225 225 227 231 235 236 240 246 255 264 270 277 285 292 299 305 311 316 320 323 322 324 327 329 332 333 335 337 338 338 339 339 339 336 331 327 322 318 314 308 304 303 301